Sondheimer, LA (71276)

10:36 AM CDT on July 23, 2016 (GMT -0500)
tallulah, mississippi st | | Change Station
Active Advisory: Heat Advisory Active Notice: Public Information Statement

Elev 85 ft 32.39 °N, 91.19 °W | Updated 4 minutes ago

Clear
Clear
85.7 °F
Feels Like 98 °F
N
4.0
Wind Variable Wind from SE
Gusts 4.0 mph

Today
High -- | Low -- °F
--% Chance of Precip.
Yesterday
High -- | Low -- °F
Precip. -- in
Pressure 30.02 in
Visibility 10.0 miles
Clouds Clear
Heat Index 98 °F
Dew Point 79 °F
Humidity 79%
Rainfall 0.00 in
Snow Depth Not available.
6:13 AM 8:08 PM
Waning Gibbous, 84% visible
METAR KTVR 231453Z AUTO VRB03KT 10SM CLR 29/25 A3001 RMK AO2 SLP166 T02940250 50005
Pressure 30.02 in
Visibility 10.0 miles
Clouds Clear
Heat Index 98 °F
Dew Point 79 °F
Humidity 79%
Rainfall 0.00 in
Snow Depth Not available.
6:13 AM 8:08 PM
Waning Gibbous, 84% visible
METAR KTVR 231453Z AUTO VRB03KT 10SM CLR 29/25 A3001 RMK AO2 SLP166 T02940250 50005

10-Day Weather Forecast

Almanac

Astronomy

Jul. 23, 2016 Rise Set
Actual Time
Civil Twilight
Nautical Twilight
Astronomical Twilight
Moon
Length of Visible Light
Length of Day
Tomorrow will be .
, % of the Moon is Illuminated

Today's Extremes

State Highs State Lows

Community

WunderPhotos

Upload Photos

1,926,847 photos uploaded!

WunderBlog® & News

Nearby

Air Quality

  Air Quality AQ Index Pollutant
Not available.

Snow Depth

Station Depth Elevation

Earthquake Activity

City Distance Mag. Time & Date
Minimum magnitude displayed is 2.5.

Coastal Water Temperatures

Place Temperature

Stations

Nearby Weather Stations

Station Location Temp. Windchill Dew Point Humidity Wind Precip. Elev Updated Type
                   

Watches & Warnings

Heat Advisory
Issued: 4:35 AM CDT Jul. 23, 2016 – National Weather Service

... Heat advisory remains in effect until 7 PM CDT this evening...

* temperature... highs in the middle to upper 90s combined with
high humidity levels will result in heat index readings from
105 to 110 degrees.

* Impacts... heat stress will reach dangerous levels and could
lead to heat exhaustion or heat stroke for those working
outdoors.

Precautionary/preparedness actions...

Take extra precautions... if you work or spend time outside. When
possible... reschedule strenuous activities to early morning or
evening. Know the signs and symptoms of heat exhaustion and heat
stroke. Wear light weight and loose fitting clothing when
possible and drink plenty of water.